,,PA_Meas_PMT16A,,PR_Meas_QMR101_102,,RH_Meas_QMH101,,SR_Meas_QMS101,,TA_Meas_QMH101,,GenWind,,GenWind,
time,status,PA,status,PR,status,RH,status,SR,status,TA,status,DirAvg,status,SpdAvg,
2009-12-22, 00:00:04,VALID,918.431,VALID,0,VALID,87.7226,VALID,0,VALID,21.0064,VALID,114,VALID,0.59375,
2009-12-22, 00:01:04,VALID,918.446,VALID,0,VALID,87.5778,VALID,0,VALID,21.0259,VALID,101,VALID,2.06523,
2009-12-22, 00:02:04,VALID,918.476,VALID,0,VALID,88.0657,VALID,0,VALID,20.9853,VALID,44,VALID,1.83828,
2009-12-22, 00:03:04,VALID,918.496,VALID,0,VALID,87.3262,VALID,0,VALID,20.9479,VALID,91,VALID,1.58438,
2009-12-22, 00:04:04,VALID,918.497,VALID,0,VALID,87.7379,VALID,0,VALID,20.9674,VALID,110,VALID,1.34961,
2009-12-22, 00:05:04,VALID,918.493,VALID,0,VALID,88.0276,VALID,0,VALID,20.9479,VALID,128,VALID,0.742578,
2009-12-22, 00:06:04,VALID,918.506,VALID,0,VALID,88.5079,VALID,0,VALID,20.9495,VALID,128,VALID,1.01914,
2009-12-22, 00:07:04,VALID,918.477,VALID,0,VALID,88.6375,VALID,0.107441,VALID,20.9089,VALID,128,VALID,0.558203,
2009-12-22, 00:08:04,VALID,918.495,VALID,0,VALID,88.9576,VALID,0,VALID,20.9089,VALID,128,VALID,0.845312,
2009-12-22, 00:09:04,VALID,918.51,VALID,0,VALID,89.194,VALID,0,VALID,20.8699,VALID,128,VALID,0.386328,
2009-12-22, 00:10:04,VALID,918.535,VALID,0,VALID,88.8509,VALID,0,VALID,20.8504,VALID,128,VALID,0.816797,
2009-12-22, 00:11:04,VALID,918.544,VALID,0,VALID,88.7975,VALID,0,VALID,20.8098,VALID,128,VALID,0.799219,
2009-12-22, 00:12:04,VALID,918.556,VALID,0,VALID,88.3401,VALID,0,VALID,20.8309,VALID,128,VALID,0.449609,
2009-12-22, 00:13:04,VALID,918.524,VALID,0,VALID,88.95,VALID,0,VALID,20.8504,VALID,128,VALID,0.0675781,
2009-12-22, 00:14:04,VALID,918.527,VALID,0,VALID,88.9653,VALID,0,VALID,20.8504,VALID,128,VALID,0.417969,
2009-12-22, 00:15:04,VALID,918.517,VALID,0,VALID,88.4316,VALID,0,VALID,20.8504,VALID,128,VALID,0.444141,
2009-12-22, 00:16:04,VALID,918.552,VALID,0,VALID,88.5384,VALID,0,VALID,20.8699,VALID,128,VALID,0.526953,
2009-12-22, 00:17:04,VALID,918.499,VALID,0,VALID,88.2715,VALID,0,VALID,20.8699,VALID,128,VALID,0.11875,
2009-12-22, 00:18:04,VALID,918.532,VALID,0,VALID,89.255,VALID,0,VALID,20.8894,VALID,128,VALID,0,
2009-12-22, 00:19:04,VALID,918.54,VALID,0,VALID,89.0567,VALID,0,VALID,20.8699,VALID,128,VALID,0.102734,
2009-12-22, 00:20:04,VALID,918.58,VALID,0,VALID,89.2092,VALID,0,VALID,20.8504,VALID,128,VALID,0,
2009-12-22, 00:21:04,VALID,918.56,VALID,0,VALID,89.6819,VALID,0,VALID,20.8699,VALID,128,VALID,0,
2009-12-22, 00:22:04,VALID,918.545,VALID,0,VALID,88.5841,VALID,0,VALID,20.8309,VALID,128,VALID,0.589063,
2009-12-22, 00:23:04,VALID,918.55,VALID,0,VALID,89.6133,VALID,0,VALID,20.8504,VALID,128,VALID,0.541797,
2009-12-22, 00:24:04,VALID,918.567,VALID,0,VALID,86.9146,VALID,0,VALID,20.8309,VALID,128,VALID,0.839844,
2009-12-22, 00:25:04,VALID,918.579,VALID,0,VALID,87.9666,VALID,0,VALID,20.8894,VALID,128,VALID,0.730859,
2009-12-22, 00:26:04,VALID,918.589,VALID,0,VALID,87.9437,VALID,0,VALID,20.9089,VALID,128,VALID,0.569922,
2009-12-22, 00:27:04,VALID,918.592,VALID,0,VALID,88.0047,VALID,0,VALID,20.9284,VALID,128,VALID,0.00273437,
2009-12-22, 00:28:04,VALID,918.574,VALID,0,VALID,87.9132,VALID,0,VALID,20.9284,VALID,128,VALID,0,
2009-12-22, 00:29:04,VALID,918.589,VALID,0,VALID,88.5155,VALID,0,VALID,20.9479,VALID,128,VALID,0.135156,
2009-12-22, 00:30:04,VALID,918.58,VALID,0,VALID,89.9487,VALID,0,VALID,20.9674,VALID,128,VALID,0.617578,
2009-12-22, 00:31:04,VALID,918.587,VALID,0,VALID,89.2473,VALID,0,VALID,20.9284,VALID,128,VALID,0.534766,
2009-12-22, 00:32:04,VALID,918.572,VALID,0,VALID,89.2931,VALID,0,VALID,20.8894,VALID,19,VALID,1.06953,
2009-12-22, 00:33:04,VALID,918.586,VALID,0,VALID,88.4545,VALID,0,VALID,20.8894,VALID,19,VALID,0.838281,
2009-12-22, 00:34:04,VALID,918.572,VALID,0,VALID,87.7455,VALID,0,VALID,20.8699,VALID,19,VALID,0.590234,
2009-12-22, 00:35:04,VALID,918.573,VALID,0,VALID,87.311,VALID,0,VALID,20.891,VALID,60,VALID,1.05234,
2009-12-22, 00:36:04,VALID,918.537,VALID,0,VALID,86.8841,VALID,0,VALID,20.9284,VALID,172,VALID,0.222656,
2009-12-22, 00:37:04,VALID,918.509,VALID,0,VALID,87.0594,VALID,0,VALID,20.969,VALID,172,VALID,0.985547,
2009-12-22, 00:38:04,VALID,918.521,VALID,0,VALID,86.5334,VALID,0,VALID,20.9674,VALID,172,VALID,1.01094,
2009-12-22, 00:39:04,VALID,918.519,VALID,0,VALID,87.6845,VALID,0,VALID,20.9885,VALID,172,VALID,1.15898,
2009-12-22, 00:40:04,VALID,918.514,VALID,0,VALID,87.1814,VALID,0,VALID,20.9284,VALID,81,VALID,1.79805,
2009-12-22, 00:41:04,VALID,918.521,VALID,0,VALID,87.5473,VALID,0,VALID,20.9089,VALID,54,VALID,1.67617,
2009-12-22, 00:42:04,VALID,918.545,VALID,0,VALID,88.302,VALID,0,VALID,20.8504,VALID,36,VALID,1.51914,
2009-12-22, 00:43:04,VALID,918.505,VALID,0,VALID,88.7747,VALID,0,VALID,20.8113,VALID,36,VALID,1.32148,
2009-12-22, 00:44:04,VALID,918.507,VALID,0,VALID,88.9348,VALID,0,VALID,20.7934,VALID,33,VALID,1.31367,
2009-12-22, 00:45:04,VALID,918.432,VALID,0,VALID,87.3567,VALID,0,VALID,20.7138,VALID,13,VALID,1.14688,
2009-12-22, 00:46:04,VALID,918.42,VALID,0,VALID,87.6312,VALID,0,VALID,20.8113,VALID,15,VALID,2.77852,
2009-12-22, 00:47:04,VALID,918.416,VALID,0,VALID,88.1648,VALID,0,VALID,20.8309,VALID,139,VALID,2.18867,
2009-12-22, 00:48:04,VALID,918.381,VALID,0,VALID,87.7836,VALID,0,VALID,20.7528,VALID,143,VALID,2.00938,
2009-12-22, 00:49:04,VALID,918.294,VALID,0,VALID,85.1917,VALID,0,VALID,20.8504,VALID,30,VALID,4.08477,
2009-12-22, 00:50:04,VALID,918.416,VALID,0,VALID,85.5271,VALID,0,VALID,21.0064,VALID,69,VALID,1.87578,
2009-12-22, 00:51:04,VALID,918.432,VALID,0,VALID,86.5029,VALID,0,VALID,21.0259,VALID,66,VALID,1.14883,
2009-12-22, 00:52:04,VALID,918.435,VALID,0,VALID,86.724,VALID,0,VALID,20.9869,VALID,51,VALID,0.751953,
2009-12-22, 00:53:04,VALID,918.423,VALID,0,VALID,87.0594,VALID,0,VALID,20.9284,VALID,51,VALID,0.599219,
2009-12-22, 00:54:04,VALID,918.464,VALID,0,VALID,87.4101,VALID,0,VALID,20.8894,VALID,51,VALID,1.19258,
2009-12-22, 00:55:04,VALID,918.389,VALID,0,VALID,86.4953,VALID,0,VALID,20.8309,VALID,51,VALID,1.0207,
2009-12-22, 00:56:04,VALID,918.457,VALID,0,VALID,87.4939,VALID,0,VALID,20.8309,VALID,52,VALID,1.23008,
2009-12-22, 00:57:04,VALID,918.482,VALID,0,VALID,88.5307,VALID,0,VALID,20.8113,VALID,52,VALID,1.01523,
2009-12-22, 00:58:04,VALID,918.481,VALID,0,VALID,88.2715,VALID,0,VALID,20.7528,VALID,53,VALID,1.5875,
2009-12-22, 00:59:04,VALID,918.469,VALID,0,VALID,88.5612,VALID,0,VALID,20.7138,VALID,27,VALID,1.51992,
2009-12-22, 01:00:04,VALID,918.459,VALID,0,VALID,88.828,VALID,0,VALID,20.6943,VALID,73,VALID,0.838672,
2009-12-22, 01:01:04,VALID,918.393,VALID,0,VALID,88.0505,VALID,0,VALID,20.6553,VALID,94,VALID,1.40703,
2009-12-22, 01:02:04,VALID,918.404,VALID,0,VALID,88.3706,VALID,0,VALID,20.6358,VALID,108,VALID,1.34102,
2009-12-22, 01:03:04,VALID,918.375,VALID,0,VALID,88.4469,VALID,0,VALID,20.5968,VALID,106,VALID,1.16875,
2009-12-22, 01:04:04,VALID,918.366,VALID,0,VALID,88.5841,VALID,0,VALID,20.5773,VALID,57,VALID,0.703516,
2009-12-22, 01:05:04,VALID,918.397,VALID,0,VALID,88.6832,VALID,0,VALID,20.5578,VALID,57,VALID,0.671484,
2009-12-22, 01:06:04,VALID,918.397,VALID,0,VALID,88.2639,VALID,0,VALID,20.5383,VALID,74,VALID,1.71992,
2009-12-22, 01:07:04,VALID,918.353,VALID,0,VALID,88.7442,VALID,0,VALID,20.5789,VALID,59,VALID,1.12969,
2009-12-22, 01:08:04,VALID,918.335,VALID,0,VALID,88.4316,VALID,0,VALID,20.5383,VALID,105,VALID,1.47617,
2009-12-22, 01:09:04,VALID,918.288,VALID,0,VALID,88.1496,VALID,0,VALID,20.5383,VALID,58,VALID,2.65352,
2009-12-22, 01:10:04,VALID,918.255,VALID,0,VALID,88.5384,VALID,0,VALID,20.5594,VALID,109,VALID,0.949609,
2009-12-22, 01:11:04,VALID,918.279,VALID,0,VALID,88.6984,VALID,0,VALID,20.5383,VALID,80,VALID,0.884766,
2009-12-22, 01:12:04,VALID,918.244,VALID,0,VALID,89.194,VALID,0,VALID,20.5188,VALID,80,VALID,0.412891,
2009-12-22, 01:13:04,VALID,918.181,VALID,0,VALID,88.02,VALID,0,VALID,20.5204,VALID,104,VALID,2.1668,
2009-12-22, 01:14:04,VALID,918.187,VALID,0,VALID,87.5244,VALID,0,VALID,20.5188,VALID,97,VALID,1.86094,
2009-12-22, 01:15:04,VALID,918.129,VALID,0,VALID,86.7697,VALID,0,VALID,20.6179,VALID,103,VALID,2.05469,
2009-12-22, 01:16:04,VALID,918.07,VALID,0,VALID,87.1966,VALID,0.107441,VALID,20.6342,VALID,48,VALID,2.54258,
2009-12-22, 01:17:04,VALID,918.068,VALID,0,VALID,87.4482,VALID,0.107441,VALID,20.6553,VALID,105,VALID,1.15273,
2009-12-22, 01:18:04,VALID,918.094,VALID,0,VALID,87.433,VALID,0.107441,VALID,20.6163,VALID,121,VALID,1.75039,
2009-12-22, 01:19:04,VALID,918.056,VALID,0,VALID,87.6769,VALID,0.107441,VALID,20.5578,VALID,113,VALID,1.70664,
2009-12-22, 01:20:04,VALID,918.026,VALID,0,VALID,87.9056,VALID,0.107441,VALID,20.5188,VALID,118,VALID,1.3457,
2009-12-22, 01:21:04,VALID,917.982,VALID,0,VALID,88.5993,VALID,0.107441,VALID,20.5188,VALID,124,VALID,0.975391,
2009-12-22, 01:22:04,VALID,917.911,VALID,0,VALID,88.9195,VALID,0,VALID,20.4798,VALID,124,VALID,0.466016,
2009-12-22, 01:23:04,VALID,917.91,VALID,0,VALID,89.0567,VALID,0.107441,VALID,20.4392,VALID,124,VALID,0.786328,
2009-12-22, 01:24:04,VALID,917.894,VALID,0,VALID,88.1953,VALID,0.107441,VALID,20.3807,VALID,111,VALID,2.51758,
2009-12-22, 01:25:04,VALID,917.87,VALID,0,VALID,88.9653,VALID,0.107441,VALID,20.4018,VALID,83,VALID,2.18281,
2009-12-22, 01:26:04,VALID,917.827,VALID,0,VALID,87.6693,VALID,0.107441,VALID,20.4213,VALID,121,VALID,2.77578,
2009-12-22, 01:27:04,VALID,917.831,VALID,0,VALID,87.1356,VALID,0.107441,VALID,20.4782,VALID,97,VALID,2.48008,
2009-12-22, 01:28:04,VALID,917.803,VALID,0,VALID,87.776,VALID,0.107441,VALID,20.5367,VALID,111,VALID,1.65195,
2009-12-22, 01:29:04,VALID,917.812,VALID,0,VALID,88.5079,VALID,0.107441,VALID,20.5188,VALID,64,VALID,1.4293,
2009-12-22, 01:30:04,VALID,917.813,VALID,0,VALID,88.8128,VALID,0.107441,VALID,20.4782,VALID,108,VALID,1.17578,
2009-12-22, 01:31:04,VALID,917.835,VALID,0,VALID,89.2854,VALID,0,VALID,20.4213,VALID,85,VALID,1.03281,
2009-12-22, 01:32:04,VALID,917.778,VALID,0,VALID,88.9653,VALID,0,VALID,20.3823,VALID,112,VALID,1.78594,
2009-12-22, 01:33:04,VALID,917.737,VALID,0,VALID,88.3935,VALID,0,VALID,20.3628,VALID,122,VALID,2.27187,
2009-12-22, 01:34:04,VALID,917.771,VALID,0,VALID,88.1724,VALID,0.107441,VALID,20.4228,VALID,111,VALID,2.81445,
2009-12-22, 01:35:04,VALID,917.745,VALID,0,VALID,88.5002,VALID,0,VALID,20.4408,VALID,138,VALID,1.83086,
2009-12-22, 01:36:04,VALID,917.684,VALID,0,VALID,88.8509,VALID,0,VALID,20.4228,VALID,150,VALID,2.78281,
2009-12-22, 01:37:04,VALID,917.694,VALID,0,VALID,89.2092,VALID,0,VALID,20.3838,VALID,158,VALID,1.62891,
2009-12-22, 01:38:04,VALID,917.674,VALID,0,VALID,89.1482,VALID,0,VALID,20.3643,VALID,134,VALID,1.7418,
2009-12-22, 01:39:04,VALID,917.635,VALID,0,VALID,88.546,VALID,0,VALID,20.3823,VALID,114,VALID,2.33867,
2009-12-22, 01:40:04,VALID,917.663,VALID,0,VALID,88.9729,VALID,0,VALID,20.4213,VALID,156,VALID,0.980859,
2009-12-22, 01:41:04,VALID,917.684,VALID,0,VALID,88.1267,VALID,0,VALID,20.4033,VALID,141,VALID,1.91602,
2009-12-22, 01:42:04,VALID,917.654,VALID,0,VALID,88.9576,VALID,0,VALID,20.4033,VALID,122,VALID,1.18438,
2009-12-22, 01:43:04,VALID,917.604,VALID,0,VALID,89.1863,VALID,0,VALID,20.3643,VALID,138,VALID,1.56016,
2009-12-22, 01:44:04,VALID,917.6,VALID,0,VALID,89.7276,VALID,0,VALID,20.3043,VALID,79,VALID,0.838672,
2009-12-22, 01:45:04,VALID,917.574,VALID,0,VALID,89.0034,VALID,0,VALID,20.3058,VALID,153,VALID,2.26875,
2009-12-22, 01:46:04,VALID,917.505,VALID,0,VALID,88.7289,VALID,0,VALID,20.3823,VALID,155,VALID,2.07344,
2009-12-22, 01:47:04,VALID,917.51,VALID,0,VALID,87.8904,VALID,0,VALID,20.4798,VALID,137,VALID,2.63672,
2009-12-22, 01:48:04,VALID,917.51,VALID,0,VALID,88.1648,VALID,0.107441,VALID,20.4782,VALID,136,VALID,2.39258,
2009-12-22, 01:49:04,VALID,917.43,VALID,0,VALID,88.5002,VALID,0,VALID,20.4603,VALID,152,VALID,2.34258,
2009-12-22, 01:50:04,VALID,917.462,VALID,0,VALID,87.5626,VALID,0,VALID,20.4392,VALID,123,VALID,4.04219,
2009-12-22, 01:51:04,VALID,917.477,VALID,0,VALID,88.0962,VALID,0,VALID,20.4993,VALID,116,VALID,2.15859,
2009-12-22, 01:52:04,VALID,917.408,VALID,0,VALID,87.8751,VALID,0.107441,VALID,20.4782,VALID,142,VALID,1.64609,
2009-12-22, 01:53:04,VALID,917.444,VALID,0,VALID,88.0962,VALID,0.107441,VALID,20.4993,VALID,137,VALID,2.37383,
2009-12-22, 01:54:04,VALID,917.427,VALID,0,VALID,88.3783,VALID,0,VALID,20.4798,VALID,112,VALID,1.83203,
2009-12-22, 01:55:04,VALID,917.378,VALID,0,VALID,87.776,VALID,0,VALID,20.5188,VALID,116,VALID,2.8918,
2009-12-22, 01:56:04,VALID,917.348,VALID,0,VALID,87.4711,VALID,0.107441,VALID,20.5383,VALID,104,VALID,1.625,
2009-12-22, 01:57:04,VALID,917.346,VALID,0,VALID,87.8446,VALID,0.107441,VALID,20.5367,VALID,93,VALID,1.39883,
2009-12-22, 01:58:04,VALID,917.333,VALID,0,VALID,87.6617,VALID,0,VALID,20.5773,VALID,80,VALID,1.81094,
2009-12-22, 01:59:04,VALID,917.293,VALID,0,VALID,87.6464,VALID,0.107441,VALID,20.5773,VALID,117,VALID,1.91016,
2009-12-22, 02:00:04,VALID,917.3,VALID,0,VALID,87.0823,VALID,0.107441,VALID,20.6163,VALID,135,VALID,1.66523,
2009-12-22, 02:01:04,VALID,917.277,VALID,0,VALID,86.7697,VALID,0,VALID,20.6179,VALID,101,VALID,1.1625,
2009-12-22, 02:02:04,VALID,917.249,VALID,0,VALID,85.8168,VALID,0,VALID,20.6569,VALID,80,VALID,4.13594,
2009-12-22, 02:03:04,VALID,917.297,VALID,0,VALID,86.2894,VALID,0,VALID,20.7739,VALID,78,VALID,0.984766,
2009-12-22, 02:04:04,VALID,917.312,VALID,0,VALID,86.4877,VALID,0,VALID,20.7739,VALID,141,VALID,1.28906,
2009-12-22, 02:05:04,VALID,917.316,VALID,0,VALID,86.4114,VALID,0,VALID,20.7138,VALID,148,VALID,1.06602,
2009-12-22, 02:06:04,VALID,917.332,VALID,0,VALID,86.5639,VALID,0,VALID,20.6959,VALID,151,VALID,2.08867,
2009-12-22, 02:07:04,VALID,917.363,VALID,0,VALID,87.067,VALID,0,VALID,20.6959,VALID,140,VALID,0.8125,
2009-12-22, 02:08:04,VALID,917.368,VALID,0,VALID,87.8446,VALID,0,VALID,20.6569,VALID,74,VALID,0.830859,
2009-12-22, 02:09:04,VALID,917.324,VALID,0,VALID,87.6845,VALID,0,VALID,20.5773,VALID,161,VALID,0.952344,
2009-12-22, 02:10:04,VALID,917.305,VALID,0,VALID,87.654,VALID,0,VALID,20.5578,VALID,172,VALID,1.25586,
2009-12-22, 02:11:04,VALID,917.267,VALID,0,VALID,87.6083,VALID,0,VALID,20.5594,VALID,193,VALID,0.591016,
2009-12-22, 02:12:04,VALID,917.274,VALID,0,VALID,87.959,VALID,0,VALID,20.5578,VALID,193,VALID,0.485156,
2009-12-22, 02:13:04,VALID,917.292,VALID,0,VALID,88.6756,VALID,0,VALID,20.5399,VALID,193,VALID,0.215234,
2009-12-22, 02:14:04,VALID,917.328,VALID,0,VALID,88.9576,VALID,0,VALID,20.5204,VALID,193,VALID,1,
2009-12-22, 02:15:04,VALID,917.301,VALID,0,VALID,87.8218,VALID,0,VALID,20.4813,VALID,193,VALID,0.751172,
2009-12-22, 02:16:04,VALID,917.318,VALID,0,VALID,88.4697,VALID,0,VALID,20.4798,VALID,193,VALID,1.15625,
2009-12-22, 02:17:04,VALID,917.316,VALID,0,VALID,88.4926,VALID,0,VALID,20.4798,VALID,193,VALID,0.555469,
2009-12-22, 02:18:04,VALID,917.267,VALID,0,VALID,88.6298,VALID,0,VALID,20.5009,VALID,193,VALID,1.18672,
2009-12-22, 02:19:04,VALID,917.297,VALID,0,VALID,89.3159,VALID,0.107441,VALID,20.4813,VALID,193,VALID,0.857422,
2009-12-22, 02:20:04,VALID,917.286,VALID,0,VALID,89.1482,VALID,0,VALID,20.4423,VALID,193,VALID,0.901172,
2009-12-22, 02:21:04,VALID,917.247,VALID,0,VALID,89.476,VALID,0,VALID,20.4228,VALID,193,VALID,0.0980469,
2009-12-22, 02:22:04,VALID,917.232,VALID,0,VALID,89.7962,VALID,0,VALID,20.3838,VALID,222,VALID,1.32813,
2009-12-22, 02:23:04,VALID,917.222,VALID,0,VALID,89.5675,VALID,0,VALID,20.3238,VALID,215,VALID,1.20625,
2009-12-22, 02:24:04,VALID,917.163,VALID,0,VALID,90.368,VALID,0,VALID,20.3253,VALID,175,VALID,0.820703,
2009-12-22, 02:25:04,VALID,917.196,VALID,0,VALID,90.6805,VALID,0,VALID,20.2863,VALID,189,VALID,1.03359,
2009-12-22, 02:26:04,VALID,917.194,VALID,0,VALID,90.7873,VALID,0,VALID,20.2068,VALID,189,VALID,0.516797,
2009-12-22, 02:27:04,VALID,917.147,VALID,0,VALID,90.9092,VALID,0,VALID,20.1678,VALID,151,VALID,0.89375,
2009-12-22, 02:28:04,VALID,917.127,VALID,0,VALID,91.1532,VALID,0,VALID,20.1888,VALID,126,VALID,0.827344,
2009-12-22, 02:29:04,VALID,917.099,VALID,0,VALID,91.0083,VALID,0,VALID,20.1693,VALID,181,VALID,1.91133,
2009-12-22, 02:30:04,VALID,917.101,VALID,0,VALID,90.124,VALID,0,VALID,20.2083,VALID,159,VALID,2.3793,
2009-12-22, 02:31:04,VALID,917.102,VALID,0,VALID,90.2536,VALID,0.107441,VALID,20.2848,VALID,142,VALID,0.613281,
2009-12-22, 02:32:04,VALID,917.1,VALID,0,VALID,90.2994,VALID,0.107441,VALID,20.2832,VALID,105,VALID,0.979688,
2009-12-22, 02:33:04,VALID,917.136,VALID,0,VALID,90.2384,VALID,0.107441,VALID,20.3043,VALID,147,VALID,1.50078,
2009-12-22, 02:34:04,VALID,917.078,VALID,0,VALID,90.4595,VALID,0,VALID,20.2458,VALID,155,VALID,2.10117,
2009-12-22, 02:35:04,VALID,917.047,VALID,0,VALID,90.0859,VALID,0.107441,VALID,20.2653,VALID,159,VALID,2.4332,
2009-12-22, 02:36:04,VALID,917.068,VALID,0,VALID,90.2994,VALID,0.107441,VALID,20.3043,VALID,143,VALID,2.08594,
2009-12-22, 02:37:04,VALID,917.04,VALID,0,VALID,90.4442,VALID,0.107441,VALID,20.2848,VALID,126,VALID,1.5418,
2009-12-22, 02:38:04,VALID,917.144,VALID,0.2,VALID,90.8254,VALID,0.107441,VALID,20.2848,VALID,93,VALID,1.39414,
2009-12-22, 02:39:04,VALID,917.109,VALID,0,VALID,90.5128,VALID,0.107441,VALID,20.2848,VALID,125,VALID,1.45313,
2009-12-22, 02:40:04,VALID,917.093,VALID,0,VALID,90.3527,VALID,0,VALID,20.2653,VALID,146,VALID,1.0082,
2009-12-22, 02:41:04,VALID,917.072,VALID,0,VALID,90.7644,VALID,0,VALID,20.2848,VALID,117,VALID,1.23672,
2009-12-22, 02:42:04,VALID,917.097,VALID,0,VALID,90.6805,VALID,0,VALID,20.2458,VALID,123,VALID,1.61758,
2009-12-22, 02:43:04,VALID,917.121,VALID,0,VALID,90.8787,VALID,0,VALID,20.2653,VALID,173,VALID,1.17969,
2009-12-22, 02:44:04,VALID,917.126,VALID,0,VALID,91.0312,VALID,0,VALID,20.2458,VALID,21,VALID,0.624219,
2009-12-22, 02:45:04,VALID,917.147,VALID,0,VALID,91.4505,VALID,0,VALID,20.2653,VALID,21,VALID,0.363672,
2009-12-22, 02:46:04,VALID,917.156,VALID,0,VALID,91.7554,VALID,0.107441,VALID,20.2458,VALID,21,VALID,0.137891,
2009-12-22, 02:47:04,VALID,917.112,VALID,0,VALID,91.6868,VALID,0,VALID,20.2263,VALID,207,VALID,1.36914,
2009-12-22, 02:48:04,VALID,917.114,VALID,0,VALID,91.2294,VALID,0.107441,VALID,20.2068,VALID,179,VALID,1.93906,
2009-12-22, 02:49:04,VALID,917.128,VALID,0,VALID,91.6563,VALID,0.107441,VALID,20.2068,VALID,37,VALID,1.30547,
2009-12-22, 02:50:04,VALID,917.135,VALID,0,VALID,91.8317,VALID,0.107441,VALID,20.1873,VALID,35,VALID,0.476563,
2009-12-22, 02:51:04,VALID,917.101,VALID,0,VALID,91.7326,VALID,0.107441,VALID,20.1678,VALID,35,VALID,1.10586,
2009-12-22, 02:52:04,VALID,917.145,VALID,0,VALID,91.9918,VALID,0.107441,VALID,20.1483,VALID,35,VALID,0.109375,
2009-12-22, 02:53:04,VALID,917.138,VALID,0,VALID,92.1747,VALID,0.107441,VALID,20.1077,VALID,35,VALID,1.0668,
2009-12-22, 02:54:04,VALID,917.1,VALID,0,VALID,91.6868,VALID,0,VALID,20.1093,VALID,36,VALID,0.286328,
2009-12-22, 02:55:04,VALID,917.12,VALID,0,VALID,91.7631,VALID,0.107441,VALID,20.1483,VALID,36,VALID,0.604297,
2009-12-22, 02:56:04,VALID,917.114,VALID,0,VALID,91.5648,VALID,0.107441,VALID,20.1678,VALID,123,VALID,0.882813,
2009-12-22, 02:57:04,VALID,917.094,VALID,0,VALID,91.9613,VALID,0.107441,VALID,20.1678,VALID,120,VALID,0.658594,
2009-12-22, 02:58:04,VALID,917.085,VALID,0,VALID,91.4352,VALID,0.107441,VALID,20.1483,VALID,169,VALID,1.74805,
2009-12-22, 02:59:04,VALID,917.052,VALID,0,VALID,91.6106,VALID,0.107441,VALID,20.1873,VALID,153,VALID,0.563672,
2009-12-22, 03:00:04,VALID,917.006,VALID,0,VALID,91.0617,VALID,0.107441,VALID,20.2052,VALID,117,VALID,1.74922,
2009-12-22, 03:01:04,VALID,916.983,VALID,0,VALID,91.3285,VALID,0.107441,VALID,20.1662,VALID,136,VALID,1.48359,
2009-12-22, 03:02:04,VALID,917.008,VALID,0,VALID,91.0922,VALID,0.107441,VALID,20.1662,VALID,143,VALID,1.41289,
2009-12-22, 03:03:04,VALID,916.981,VALID,0,VALID,90.5357,VALID,0.107441,VALID,20.1857,VALID,95,VALID,2.2668,
2009-12-22, 03:04:04,VALID,917,VALID,0,VALID,90.5052,VALID,0.107441,VALID,20.2458,VALID,126,VALID,1.76953,
2009-12-22, 03:05:04,VALID,916.977,VALID,0,VALID,90.185,VALID,0.107441,VALID,20.2653,VALID,160,VALID,2.16367,
2009-12-22, 03:06:04,VALID,916.956,VALID,0,VALID,89.9411,VALID,0,VALID,20.3253,VALID,154,VALID,2.2793,
2009-12-22, 03:07:04,VALID,916.975,VALID,0,VALID,89.6971,VALID,0,VALID,20.3643,VALID,146,VALID,1.3125,
2009-12-22, 03:08:04,VALID,916.956,VALID,0,VALID,88.8967,VALID,0.107441,VALID,20.4018,VALID,148,VALID,3.175,
2009-12-22, 03:09:04,VALID,916.923,VALID,0,VALID,89.0567,VALID,0.107441,VALID,20.3807,VALID,143,VALID,2.07109,
2009-12-22, 03:10:04,VALID,916.91,VALID,0,VALID,88.6298,VALID,0.107441,VALID,20.4603,VALID,157,VALID,1.83047,
2009-12-22, 03:11:04,VALID,916.914,VALID,0,VALID,89.1863,VALID,0.107441,VALID,20.4603,VALID,132,VALID,1.64375,
2009-12-22, 03:12:04,VALID,916.892,VALID,0,VALID,89.255,VALID,0.107441,VALID,20.4213,VALID,191,VALID,0.74375,
2009-12-22, 03:13:04,VALID,916.94,VALID,0,VALID,89.011,VALID,0.107441,VALID,20.4213,VALID,138,VALID,1.42305,
2009-12-22, 03:14:04,VALID,916.99,VALID,0,VALID,88.9043,VALID,0.107441,VALID,20.4213,VALID,141,VALID,1.76992,
2009-12-22, 03:15:04,VALID,916.987,VALID,0,VALID,88.8585,VALID,0.107441,VALID,20.4018,VALID,113,VALID,1.24219,
2009-12-22, 03:16:04,VALID,916.984,VALID,0,VALID,89.3464,VALID,0.107441,VALID,20.3807,VALID,149,VALID,1.17578,
2009-12-22, 03:17:04,VALID,917,VALID,0,VALID,88.9653,VALID,0.107441,VALID,20.4002,VALID,173,VALID,1.17266,
2009-12-22, 03:18:04,VALID,916.945,VALID,0,VALID,89.1863,VALID,0.107441,VALID,20.4213,VALID,156,VALID,1.49258,
2009-12-22, 03:19:04,VALID,916.939,VALID,0,VALID,89.2778,VALID,0.107441,VALID,20.4213,VALID,171,VALID,1.08594,
2009-12-22, 03:20:04,VALID,916.883,VALID,0,VALID,89.6133,VALID,0.107441,VALID,20.3628,VALID,131,VALID,1.55664,
2009-12-22, 03:21:04,VALID,916.884,VALID,0,VALID,89.3083,VALID,0.107441,VALID,20.3222,VALID,158,VALID,1.35391,
2009-12-22, 03:22:04,VALID,916.847,VALID,0,VALID,89.5446,VALID,0.107441,VALID,20.3417,VALID,154,VALID,1.47656,
2009-12-22, 03:23:04,VALID,916.878,VALID,0,VALID,89.6285,VALID,0.107441,VALID,20.3628,VALID,176,VALID,2.07773,
2009-12-22, 03:24:04,VALID,916.906,VALID,0,VALID,89.7276,VALID,0.107441,VALID,20.3612,VALID,148,VALID,1.31094,
2009-12-22, 03:25:04,VALID,916.903,VALID,0,VALID,89.8038,VALID,0.107441,VALID,20.3222,VALID,128,VALID,2.48125,
2009-12-22, 03:26:04,VALID,916.914,VALID,0,VALID,89.1177,VALID,0.107441,VALID,20.4018,VALID,103,VALID,2.09063,
2009-12-22, 03:27:04,VALID,916.908,VALID,0,VALID,88.9653,VALID,0.107441,VALID,20.4408,VALID,110,VALID,0.657812,
2009-12-22, 03:28:04,VALID,916.913,VALID,0,VALID,87.9513,VALID,0.107441,VALID,20.4392,VALID,132,VALID,2.13594,
2009-12-22, 03:29:04,VALID,916.887,VALID,0,VALID,88.1648,VALID,0.107441,VALID,20.4977,VALID,165,VALID,1.31992,
2009-12-22, 03:30:04,VALID,916.898,VALID,0,VALID,87.8599,VALID,0.107441,VALID,20.5383,VALID,99,VALID,1.53516,
2009-12-22, 03:31:04,VALID,916.897,VALID,0,VALID,88.5536,VALID,0,VALID,20.5594,VALID,54,VALID,1.68086,
2009-12-22, 03:32:04,VALID,916.949,VALID,0,VALID,88.4316,VALID,0,VALID,20.4993,VALID,103,VALID,1.61992,
2009-12-22, 03:33:04,VALID,916.87,VALID,0,VALID,88.4469,VALID,0,VALID,20.4993,VALID,78,VALID,1.50195,
2009-12-22, 03:34:04,VALID,916.91,VALID,0,VALID,88.6451,VALID,0,VALID,20.4813,VALID,104,VALID,2.14414,
2009-12-22, 03:35:04,VALID,916.909,VALID,0,VALID,88.7137,VALID,0,VALID,20.4423,VALID,165,VALID,1.36289,
2009-12-22, 03:36:04,VALID,916.915,VALID,0,VALID,89.2016,VALID,0,VALID,20.4813,VALID,142,VALID,1.34922,
2009-12-22, 03:37:04,VALID,916.928,VALID,0,VALID,89.072,VALID,0,VALID,20.4213,VALID,105,VALID,1.48711,
2009-12-22, 03:38:04,VALID,916.955,VALID,0,VALID,89.1863,VALID,0,VALID,20.4228,VALID,180,VALID,1.0625,
2009-12-22, 03:39:04,VALID,916.93,VALID,0,VALID,89.781,VALID,0,VALID,20.4033,VALID,170,VALID,0.925781,
2009-12-22, 03:40:04,VALID,916.955,VALID,0,VALID,89.6514,VALID,0,VALID,20.3838,VALID,121,VALID,0.912891,
2009-12-22, 03:41:04,VALID,916.959,VALID,0,VALID,89.9106,VALID,0,VALID,20.3448,VALID,115,VALID,0.449219,